This is the latest recevied weather packets stored in our database for station/object JH7UAX-10. If no packets are shown the sender has not sent any weather packets the latest 10 day(s).
| Time | Temp. | Humidity | Pressure | Rain* | Wind** | Luminosity | Snow |
|---|---|---|---|---|---|---|---|
| 1777957205 | 18.33° C | 54% | 1028.5 hPa | 0 mm | - | - | - |
| 1777956779 | 18.89° C | 55% | 1028.3 hPa | 0 mm | - | - | - |
| 1777956305 | 18.89° C | 54% | 1028.3 hPa | 0 mm | - | - | - |
| 1777955879 | 18.33° C | 57% | 1028.3 hPa | 0 mm | - | - | - |
| 1777954979 | 17.78° C | 61% | 1028.4 hPa | 0 mm | - | - | - |
| 1777954079 | 17.78° C | 61% | 1028.4 hPa | 0 mm | - | - | - |
| 1777953606 | 18.33° C | 61% | 1028.4 hPa | 0 mm | - | - | - |
| 1777953178 | 18.33° C | 55% | 1028.4 hPa | 0 mm | - | - | - |
| 1777952705 | 18.33° C | 59% | 1028.4 hPa | 0 mm | - | - | - |
| 1777952279 | 17.78° C | 61% | 1028.3 hPa | 0 mm | - | - | - |
| 1777951378 | 17.22° C | 62% | 1028.4 hPa | 0 mm | - | - | - |
| 1777950906 | 17.78° C | 61% | 1028.4 hPa | 0 mm | - | - | - |
| 1777950478 | 17.22° C | 61% | 1028.4 hPa | 0 mm | - | - | - |
| 1777950006 | 17.22° C | 63% | 1028.4 hPa | 0 mm | - | - | - |
| 1777949578 | 17.22° C | 62% | 1028.4 hPa | 0 mm | - | - | - |
| 1777949106 | 17.22° C | 55% | 1028.4 hPa | 0 mm | - | - | - |
| 1777948678 | 17.22° C | 57% | 1028.3 hPa | 0 mm | - | - | - |
| 1777947778 | 16.67° C | 59% | 1028.4 hPa | 0 mm | - | - | - |
| 1777947305 | 16.67° C | 58% | 1028.6 hPa | 0 mm | - | - | - |
| 1777946879 | 16.67° C | 62% | 1028.7 hPa | 0 mm | - | - | - |
| 1777946405 | 16.11° C | 62% | 1028.8 hPa | 0 mm | - | - | - |
| 1777945979 | 15.56° C | 65% | 1028.9 hPa | 0 mm | - | - | - |
| 1777945505 | 15.56° C | 67% | 1028.9 hPa | 0 mm | - | - | - |
| 1777945079 | 15.56° C | 69% | 1029 hPa | 0 mm | - | - | - |
| 1777944604 | 15° C | 70% | 1029 hPa | 0 mm | - | - | - |
* Rain latest hour (hover to see other rain measurements)
** Current wind speed in m/s (hover to see current wind gust speed)